Location: Blazny
(46.0612°N, 84.4033°W)
Time: 09:26:13
(UTC-04:00)

ARIANE 6 FM1 Upper Stage - Pass Details

Date: 21 September 2024
Orbit: 564 x 594 km, 62.0° (Epoch: 03 October)

Event Time Altitude Azimuth Distance (km) Brightness Sun altitude
Exits shadow 06:41:54 - 287° (WNW) 2,125 5.1 -8.1°
Reaches altitude 10° 06:42:42 10° 280° (W) 1,933 4.8 -8.0°
Maximum altitude 06:45:06 15° 246° (WSW) 1,646 4.4 -7.6°
Drops below altitude 10° 06:47:31 10° 212° (SSW) 1,926 5.0 -7.1°
Sets 06:50:37 0° 189° (S) 2,820 6.1 -6.6°
